Regional Weather Roundup
Issued by NWS

Home | Current Version | Previous Version | Text Only | Print | Product List | Glossary Off
Versions: 1 2 3 4 5 6 7 8 9 10 11 12 13 14 15 16 17 18 19 20 21 22 23 24 25 26 27 28 29 30 31 32 33 34 35 36 37 38 39 40 41 42 43 44 45 46 47 48 49 50

000
ASUS43 KFSD 251510
RWRSD

WEATHER ROUNDUP FOR SOUTH DAKOTA
NATIONAL WEATHER SERVICE SIOUX FALLS SD
1000 AM CDT MON MAY 25 2015

NOTE: "FAIR" INDICATES FEW OR NO CLOUDS BELOW 12,000 FEET WITH NO
SIGNIFICANT WEATHER AND/OR OBSTRUCTIONS TO VISIBILITY.


SDZ001>005-009-010-012>017-251600-
NORTHWEST AND NORTH CENTRAL SOUTH DAKOTA

CITY           SKY/WX    TMP DP  RH WIND       PRES   REMARKS
BUFFALO          N/A     53  52  96 N10       29.80S
FAITH            N/A     54  52  93 NE14      29.82S
MOBRIDGE       RAIN      58  58 100 N6        29.80S FOG
$$

SDZ012>016-024>037-041>051-057-063-072>074-251600-
SOUTHWEST AND SOUTH CENTRAL SOUTH DAKOTA

CITY           SKY/WX    TMP DP  RH WIND       PRES   REMARKS
RAPID CTY ARPT CLOUDY    56  52  86 N12       29.83S
PIERRE         CLOUDY    59  55  87 NE8       29.77S
CUSTER         PTSUNNY   52  42  69 NE10      29.87S
ELLSWORTH AFB  CLOUDY    54  54 100 N14       29.83
PHILIP         CLOUDY    58  53  84 N9        29.80F
PINE RIDGE     LGT RAIN  53  51  93 N10       29.81S
SPEARFISH      LGT RAIN  50  50 100 NW6       29.88R
WINNER         CLOUDY    61  57  87 NE8       29.78S
$$

SDZ004>011-016>023-039-040-251600-
NORTHEAST SOUTH DAKOTA

CITY           SKY/WX    TMP DP  RH WIND       PRES   REMARKS
ABERDEEN       CLOUDY    59  55  87 NE12      29.78R
WATERTOWN      CLOUDY    59  55  87 W8        29.72F
BROOKINGS      CLOUDY    61  57  88 W9        29.74S
SISSETON         N/A     57  56  96 NE21G29   29.72S
$$

SDZ017-020-022-023-036>040-048>070-251600-
SOUTHEAST SOUTH DAKOTA

CITY           SKY/WX    TMP DP  RH WIND       PRES   REMARKS
SIOUX FALLS    CLOUDY    62  57  83 VRB3      29.76R
HURON          CLOUDY    60  58  92 N9        29.75S
CHAMBERLAIN    CLOUDY    57  56  95 CALM      29.79S
MITCHELL       CLOUDY    60  58  92 NW7       29.77S
YANKTON        CLOUDY    61  55  82 CALM      29.77S
$$

ABBREVIATIONS USED IN REMARKS
   TC - TEMPERATURE IN CELSIUS
  WCI - WIND CHILL INDEX
   HX - HEAT INDEX
  VSB - VISIBILITY




USA.gov is the U.S. government's official web portal to all federal, state and local government web resources and services.